EW3244 Weather Reports


Display with metric or nautical units.
time (UTC)temp
F
wind
direction
speed
MPH
gust
MPH
rain 1hr
in
rain 24hr
in
rain mn
in
humidity
%
barometer
mb
20260904170048 59 54 3.0 6.0 0.00 0.20 0.20 76 993.8
20260904164548 60 52 3.0 6.0 0.00 0.20 0.20 76 993.7
20260904163054 60 62 2.0 5.0 0.00 0.20 0.20 76 993.8
20260904161545 60 50 3.0 6.0 0.00 0.20 0.20 75 993.8
20260904160045 60 42 2.0 4.0 0.00 0.20 0.20 75 993.8
20260904154543 60 40 2.0 5.0 0.00 0.20 0.20 74 994.0
20260904153049 61 57 4.0 11.0 0.00 0.20 0.20 73 994.2
20260904151540 61 38 7.0 11.0 0.00 0.20 0.20 72 994.3
20260904150044 61 48 3.0 11.0 0.00 0.20 0.20 74 994.4
20260904144538 61 39 5.0 9.0 0.00 0.20 0.20 74 994.5
20260904143036 62 37 3.0 7.0 0.00 0.20 0.20 75 994.7
20260904141546 62 291 4.0 9.0 0.00 0.20 0.20 74 994.7
20260904140034 62 18 4.0 10.0 0.00 0.20 0.20 75 994.8
20260904134530 61 32 5.0 11.0 0.00 0.20 0.20 75 995.0
20260904133026 61 51 3.0 8.0 0.00 0.20 0.20 79 995.2
20260904131523 60 57 4.0 8.0 0.00 0.20 0.20 79 995.4
20260904130021 60 43 3.0 8.0 0.00 0.20 0.20 79 995.7
20260904124520 60 46 3.0 8.0 0.00 0.20 0.20 80 995.8
20260904123019 60 67 4.0 10.0 0.00 0.20 0.20 80 995.9
20260904121520 60 9 3.0 9.0 0.00 0.20 0.20 81 995.9
20260904120018 60 34 1.0 8.0 0.00 0.20 0.20 80 996.0
20260904114532 59 47 3.0 8.0 0.00 0.20 0.20 80 996.1
20260904113011 59 45 3.0 9.0 0.00 0.20 0.20 79 996.4
20260904111508 59 9 3.0 7.0 0.00 0.20 0.20 78 996.5
20260904110020 59 21 2.0 7.0 0.00 0.20 0.20 75 996.6
20260904104504 59 28 2.0 6.0 0.00 0.20 0.20 74 996.9
20260904103001 59 64 3.0 9.0 0.00 0.20 0.20 74 997.1
20260904101604 58 53 3.0 7.0 0.00 0.20 0.20 69 996.9
20260904100056 58 40 2.0 6.0 0.00 0.20 0.20 62 997.2
20260904094552 57 56 4.0 9.0 0.00 0.20 0.20 50 997.3
20260904093049 57 26 2.0 6.0 0.00 0.20 0.20 43 997.5
20260904091548 57 50 3.0 8.0 0.00 0.20 0.20 33 997.5
20260904090046 56 63 2.0 6.0 0.02 0.20 0.20 28 997.5
20260904084545 56 32 1.0 3.0 0.06 0.20 0.20 28 997.6
20260904083052 55 343 0.0 2.0 0.08 0.20 0.20 31 997.6
20260904081539 54 324 0.0 3.0 0.09 0.20 0.20 33 997.7
20260904080037 54 297 0.0 3.0 0.07 0.18 0.18 36 997.9
20260904074543 53 291 0.0 3.0 0.06 0.15 0.15 38 997.9
20260904073034 53 280 0.0 4.0 0.04 0.13 0.13 40 998.0
20260904071535 53 282 1.0 4.0 0.05 0.12 0.12 41 998.1
20260904070031 53 264 0.0 3.0 0.06 0.10 0.10 42 998.3
20260904064529 53 343 0.0 3.0 0.08 0.09 0.09 41 998.3
20260904063041 52 346 0.0 0.0 0.07 0.08 0.08 44 998.5
20260904061526 52 346 0.0 0.0 0.06 0.07 0.07 49 998.7
20260904060030 52 346 0.0 2.0 0.04 0.04 0.04 49 998.8
20260904054523 53 23 0.0 1.0 0.02 0.02 0.02 41 998.9
20260904053030 54 26 0.0 0.0 0.01 0.01 0.01 38 998.9
20260904051521 54 26 0.0 1.0 0.01 0.01 0.01 38 999.0
20260904050019 53 40 0.0 0.0 0.00 0.00 0.00 40 999.0
20260904044535 53 40 0.0 0.0 0.00 0.00 0.00 40 999.0
20260904043016 53 40 0.0 0.0 0.00 0.00 0.00 42 999.1
20260904041516 53 40 0.0 0.0 0.00 0.00 0.00 43 999.2
20260904040014 53 40 0.0 0.0 0.00 0.00 0.00 44 999.2
20260904034512 53 48 0.0 0.0 0.00 0.00 0.00 45 999.3
20260904033011 52 48 0.0 0.0 0.00 0.00 0.00 46 999.5
20260904031509 52 48 0.0 0.0 0.00 0.00 0.00 48 999.6
20260904030008 52 48 0.0 0.0 0.00 0.00 0.00 47 999.5
20260904024507 52 48 0.0 0.0 0.00 0.00 0.00 51 999.8
20260904023005 52 48 0.0 0.0 0.00 0.00 0.00 51 999.7
20260904021502 52 48 0.0 0.0 0.00 0.00 0.00 53 999.7
20260904020000 52 48 0.0 0.0 0.00 0.00 0.00 54 999.9
20260904014600 52 48 0.0 0.0 0.00 0.00 0.00 55 1000.0
20260904013057 52 48 0.0 0.0 0.00 0.00 0.00 55 1000.1
20260904011556 52 48 0.0 0.0 0.00 0.00 0.00 56 1000.2
20260904010100 52 48 0.0 0.0 0.00 0.00 0.00 58 1000.4
20260904004559 52 48 0.0 0.0 0.00 0.00 0.00 58 1000.5
20260904003050 52 48 0.0 0.0 0.00 0.00 0.00 60 1000.7
20260904001547 52 48 0.0 0.0 0.00 0.00 0.00 62 1000.7
20260904000108 52 48 0.0 0.0 0.00 0.00 0.00 64 1000.8
20260903234546 52 48 0.0 0.0 0.00 0.00 0.00 66 1001.0
20260903233042 52 48 0.0 0.0 0.00 0.00 0.00 67 1001.1
20260903231540 53 48 0.0 0.0 0.00 0.00 0.00 69 1001.1
20260903230041 53 48 0.0 0.0 0.00 0.00 0.00 70 1001.2
20260903224536 53 48 0.0 0.0 0.00 0.00 0.00 71 1001.4
20260903223037 54 48 0.0 0.0 0.00 0.00 0.00 71 1001.6
20260903221530 54 48 0.0 0.0 0.00 0.00 0.00 72 1001.5
20260903220037 54 48 0.0 0.0 0.00 0.00 0.00 74 1001.6
20260903214527 54 48 0.0 0.0 0.00 0.00 0.00 75 1001.7
20260903213035 54 48 0.0 0.0 0.00 0.00 0.00 76 1001.8
20260903211554 55 48 0.0 0.0 0.00 0.00 0.00 77 1001.9
20260903210024 55 48 0.0 0.0 0.00 0.00 0.00 79 1001.8
20260903204523 55 48 0.0 0.0 0.00 0.00 0.00 79 1001.9
20260903203021 55 48 0.0 0.0 0.00 0.00 0.00 80 1002.0
20260903201521 55 48 0.0 0.0 0.00 0.00 0.00 81 1002.0
20260903200019 56 48 0.0 1.0 0.00 0.00 0.00 81 1002.2
20260903194518 56 48 0.0 0.0 0.00 0.00 0.00 81 1002.3
20260903193016 56 48 0.0 1.0 0.00 0.00 0.00 81 1002.5
20260903191516 57 48 0.0 1.0 0.00 0.00 0.00 81 1002.5
20260903190013 57 48 0.0 2.0 0.00 0.00 0.00 80 1002.7
20260903184513 57 50 0.0 2.0 0.00 0.00 0.00 80 1002.8
20260903183010 57 50 0.0 0.0 0.00 0.00 0.00 80 1002.9
20260903181512 58 50 0.0 0.0 0.00 0.00 0.00 79 1003.1
20260903180007 58 50 0.0 1.0 0.00 0.00 0.00 78 1003.2
20260903174519 59 50 0.0 1.0 0.00 0.00 0.00 78 1003.3
20260903173017 59 50 0.0 3.0 0.00 0.00 0.00 77 1003.3
20260903171505 60 42 1.0 4.0 0.00 0.00 0.00 76 1003.4